Wetbulb
48.00 48.95 48.15 48.28 48.36 48.48 48.71 50.63 48.69 51.27 50.66 54.25 55.42 56.24 58.78 61.51 62.90 63.51 67.00 69.40 70.03 69.95 71.33 72.52 73.50 74.24 74.37 74.34 74.46 73.86 73.18 72.68 72.66 73.22 73.50 73.54 73.91 74.76 74.64 74.42 75.60 76.07 75.66 74.89
46.81 47.77 47.02 46.56 48.70 49.19 49.32 48.38 50.19 49.22 50.42 54.71 62.37 62.02 59.57 59.99 61.48 62.70 65.65 68.80 70.66 71.13 72.07 72.30 73.19 73.92 74.06 74.02 74.08 73.77 72.96 72.39 73.26 73.55 73.94 74.36 75.16 74.62 74.28 75.09 75.68 75.29 74.84 74.44
45.19 46.38 46.37 43.97 47.90 48.88 50.15 51.48 51.43 49.84 54.21 62.12 63.05 63.25 62.85 62.01 62.18 62.18 64.04 67.33 70.29 71.38 72.26 72.89 73.52 74.24 73.70 74.08 74.53 73.50 72.94 73.18 73.57 74.09 74.53 75.00 75.17 74.13 73.77 74.36 73.91 73.46 72.84 72.59
46.30 46.66 40.59 48.99 56.41 53.24 53.07 59.45 60.69 60.71 61.37 62.39 62.78 62.74 65.96 67.97 66.45 63.11 62.78 65.43 69.70 71.63 72.65 73.62 74.27 74.13 74.44 74.29 74.03 73.49 73.15 73.09 73.95 74.50 74.57 75.08 74.58 74.06 73.93 73.34 73.04 71.88 71.06 71.04
44.92 44.48 46.37 52.75 56.90 56.41 54.78 56.97 61.39 60.70 61.10 62.79 63.95 61.28 64.19 69.13 70.16 69.66 69.00 64.79 68.37 71.56 73.11 74.13 73.80 74.38 73.92 73.37 73.48 73.18 72.88 73.08 74.03 74.70 74.63 74.43 73.96 73.53 72.94 72.19 71.47 71.04 70.42 69.36
44.72 43.46 41.74 51.02 57.92 59.48 60.26 54.60 61.56 61.10 61.65 62.35 63.68 59.37 64.87 67.57 68.54 69.95 69.62 65.50 66.45 69.92 71.81 72.99 73.83 74.16 73.27 73.05 72.80 72.53 73.19 73.71 74.49 74.83 74.66 74.23 74.58 73.57 72.59 72.15 71.31 70.07 68.93 68.47
46.66 46.75 48.23 54.28 58.11 60.09 51.68 53.54 61.77 62.16 62.52 63.29 63.64 63.89 65.40 66.56 65.52 67.36 69.93 69.81 69.69 69.51 70.31 71.47 72.80 73.19 72.60 73.28 72.74 74.09 74.20 74.10 74.23 74.63 74.53 74.25 73.62 72.83 71.50 70.49 70.04 69.14 68.35 67.40
49.93 49.50 47.24 58.59 58.31 55.54 58.91 61.38 61.33 61.49 62.38 63.05 64.12 64.91 64.77 65.31 65.15 66.51 66.07 67.96 70.32 69.89 69.99 70.57 71.63 72.17 71.74 71.15 72.87 73.83 72.14 72.82 72.78 72.15 70.99 69.82 69.10 68.34 68.29 68.07 66.60 66.43 65.90 65.70
54.17 54.19 57.97 60.30 60.56 62.14 62.66 61.13 61.30 61.70 63.10 62.13 62.62 63.56 64.15 64.94 65.16 66.22 67.67 67.21 67.45 68.55 68.78 69.47 70.23 71.21 69.81 70.72 72.00 71.79 71.34 70.14 71.78 72.18 69.53 70.15 67.80 68.25 68.05 69.41 66.15 65.91 65.89 63.90
54.91 56.77 56.91 58.75 60.47 61.44 62.02 62.28 62.67 62.95 62.90 62.04 61.65 62.31 62.94 63.26 64.57 65.27 66.80 67.76 67.68 66.69 66.38 64.73 65.39 66.80 67.77 69.91 69.51 68.97 68.00 66.51 70.74 71.53 68.94 70.28 69.87 69.15 68.20 66.90 67.23 66.40 65.84 65.00
54.53 56.22 56.77 59.09 60.73 61.70 62.03 62.56 62.71 62.30 62.01 61.82 62.38 62.25 62.35 62.67 63.09 63.62 64.38 65.86 68.00 67.09 68.07 68.88 68.92 68.84 66.62 64.81 65.42 63.12 63.36 64.43 68.27 67.24 66.77 66.85 68.90 67.81 68.47 68.62 66.83 65.51 64.29 64.25
54.07 57.72 58.01 58.54 61.09 62.15 60.79 60.10 60.61 60.51 61.04 61.56 62.17 63.47 64.59 64.63 64.63 64.62 64.46 65.25 65.04 65.16 66.04 66.70 67.66 68.45 69.17 67.77 66.61 66.12 65.96 65.55 66.62 68.41 68.18 67.73 67.75 64.09 51.11 52.41 54.40 53.86 55.13 61.91
57.33 58.15 59.46 60.44 61.07 61.04 60.64 60.95 62.27 63.56 63.50 63.33 63.52 64.45 64.83 64.17 64.30 62.29 64.72 64.46 64.56 65.73 64.89 64.84 65.06 66.92 67.63 68.92 67.69 67.64 66.15 66.92 67.96 64.73 67.97 67.35 65.91 63.39 62.25 57.82 49.07 48.96 49.69 52.04
59.57 60.00 58.78 59.95 59.73 61.57 61.44 61.83 61.90 63.46 63.87 63.51 64.28 64.78 64.63 64.38 63.78 63.44 62.68 64.12 64.40 63.91 63.52 65.41 63.26 63.53 65.43 69.01 69.02 68.60 67.91 60.02 67.50 67.48 67.01 65.83 65.90 63.74 64.19 62.84 62.54 61.41 51.32 52.77
58.79 61.17 60.60 61.44 60.79 61.07 61.84 62.14 61.61 62.31 62.48 62.50 63.07 62.74 63.58 63.55 62.32 61.96 62.89 65.01 64.59 64.47 63.74 65.40 64.89 66.11 68.26 68.57 67.75 67.46 67.80 67.19 67.01 67.44 66.95 65.75 65.95 64.37 63.41 62.75 62.08 61.73 53.64 49.31
59.85 60.27 59.78 60.18 61.25 61.20 62.19 62.37 61.09 61.96 61.98 61.37 61.00 60.75 61.78 62.83 62.90 62.51 62.20 62.28 61.98 61.35 61.71 62.80 64.02 64.78 66.67 68.02 67.78 67.65 67.48 63.55 63.88 65.60 64.07 62.74 61.90 61.00 60.18 59.47 59.59 58.21 55.23 55.35
58.70 57.94 59.07 59.53 60.55 61.05 61.91 62.54 62.27 62.22 61.10 59.64 59.45 60.68 61.35 61.62 61.10 61.04 61.13 61.91 62.85 61.63 62.55 62.95 63.85 65.72 67.54 67.85 67.92 67.64 67.55 66.64 63.28 64.70 64.81 63.52 62.47 62.19 61.59 59.98 59.28 57.26 56.54 52.85
60.83 62.43 62.14 62.22 61.24 61.13 61.40 62.53 62.27 60.09 58.70 58.85 59.62 60.44 60.88 60.29 59.58 60.05 58.66 60.78 62.13 62.33 61.88 62.05 63.62 65.79 65.72 66.82 67.25 67.39 65.47 65.57 65.50 64.75 64.67 64.08 62.98 62.85 63.00 62.22 60.87 58.84 58.58 51.35
59.78 60.81 61.80 61.42 62.26 62.10 62.20 61.75 60.74 59.94 59.42 60.35 60.31 59.86 60.56 60.93 60.42 60.02 59.19 60.44 61.16 61.65 59.53 62.22 61.68 64.83 65.91 65.55 66.41 67.01 65.60 64.81 64.90 65.50 64.94 61.12 63.55 63.14 62.63 62.52 62.35 63.07 61.57 57.97
59.62 61.82 61.60 62.21 62.23 62.36 61.73 61.21 60.81 60.19 60.55 60.70 60.62 60.01 59.75 59.93 60.12 59.90 60.45 58.43 58.12 59.04 59.50 59.19 62.27 64.44 64.52 63.81 62.12 63.53 64.46 65.26 64.78 64.46 65.51 65.12 64.39 63.10 63.26 58.04 62.52 63.18 63.50 62.55
60.63 60.87 60.95 60.81 61.19 62.45 61.98 61.58 60.34 59.58 60.12 60.59 59.91 59.79 59.78 60.29 59.99 60.49 60.72 59.55 60.18 60.49 60.77 59.34 61.13 63.37 64.38 62.04 61.50 61.80 61.37 60.11 58.42 58.76 61.52 61.26 61.83 62.25 62.30 62.55 62.11 62.64 64.08 61.59
60.25 60.66 60.75 61.18 60.99 60.93 61.93 61.39 60.84 60.31 59.95 60.22 60.18 59.53 59.82 59.95 60.44 60.09 60.41 59.04 60.11 54.22 60.36 61.64 61.09 57.32 59.50 59.96 61.73 61.26 60.79 60.57 60.28 59.97 58.48 59.26 61.11 62.18 62.32 62.51 62.07 62.22 63.41 63.22
60.23 60.92 61.25 60.97 60.67 61.23 61.65 61.54 61.49 61.36 60.33 60.10 58.99 58.88 58.45 58.14 58.39 56.87 55.85 59.36 60.66 55.48 60.78 60.78 56.28 54.98 55.79 60.15 60.02 59.45 59.45 59.21 58.94 58.84 58.84 59.12 58.86 58.42 58.05 57.12 57.80 57.77 58.57 59.28
60.56 60.98 60.55 61.12 60.56 59.36 58.28 59.89 60.78 61.07 61.12 60.53 59.55 59.65 58.88 57.69 58.21 59.76 59.62 54.59 52.77 54.64 58.89 59.44 58.02 54.06 54.53 60.51 60.62 60.48 60.10 58.99 58.81 58.74 59.07 50.61 59.35 59.46 59.55 59.81 59.97 60.37 59.81 58.53
59.94 59.48 59.11 58.70 57.45 58.84 60.26 59.77 59.75 59.91 59.99 60.36 60.89 61.30 61.18 60.95 59.87 60.04 61.56 61.54 53.63 56.42 62.03 56.10 54.95 54.63 60.74 61.26 61.73 61.43 61.21 60.55 60.06 60.17 59.38 59.11 59.17 59.93 60.62 60.65 60.48 60.35 60.77 60.72
57.65 57.28 57.70 59.50 59.75 59.28 59.81 59.22 58.25 58.33 59.17 58.86 59.66 60.55 61.38 62.09 62.45 61.73 62.17 58.22 61.07 57.19 60.71 61.74 61.26 61.36 61.40 61.22 61.36 61.32 61.33 61.57 60.92 61.18 58.95 60.33 60.27 59.93 59.92 60.17 60.46 60.74 60.67 60.87
56.88 53.70 58.38 58.56 59.60 60.39 59.81 59.30 58.72 57.78 58.24 59.67 59.16 60.95 61.41 61.58 60.87 59.61 55.65 61.87 61.56 61.08 61.11 61.59 61.49 59.03 61.51 61.84 61.66 61.56 61.28 60.76 55.31 60.59 61.31 61.68 61.65 61.08 60.35 59.86 59.91 60.02 60.10 60.25
MSLP
1000.51 1000.19 1000.37 1000.17 1000.21 1000.41 1000.16 999.79 999.55 999.01 999.56 999.23 999.82 999.73 999.30 999.39 999.61 999.96 1000.30 1000.72 1001.19 1001.60 1002.19 1002.90 1003.55 1004.15 1004.66 1005.21 1005.68 1006.39 1007.01 1007.47 1008.00 1008.45 1008.83 1009.23 1009.56 1009.82 1010.13 1010.39 1010.63 1010.92 1011.25 1011.59
1000.39 1000.16 1000.26 1000.04 999.89 1000.03 1000.01 1000.18 1000.04 999.95 999.86 999.77 1000.04 1000.02 999.93 999.91 999.86 999.71 999.75 1000.26 1000.82 1001.23 1001.86 1002.45 1003.27 1003.82 1004.26 1004.75 1005.40 1006.00 1006.74 1007.36 1007.95 1008.49 1008.80 1008.97 1009.24 1009.57 1009.89 1010.09 1010.43 1010.86 1011.07 1011.42
1000.26 1000.24 1000.19 999.97 999.30 999.51 999.65 999.87 999.76 999.83 999.76 1000.32 1000.11 1000.14 1000.20 1000.08 1000.02 999.73 999.67 1000.01 1000.34 1001.01 1001.45 1002.13 1002.61 1003.15 1003.64 1004.36 1005.18 1005.82 1006.44 1007.21 1007.68 1008.11 1008.53 1008.80 1009.14 1009.54 1009.71 1010.09 1010.57 1010.80 1011.10 1011.37
1000.37 1000.54 999.92 998.89 999.42 999.35 999.26 999.85 1000.18 1000.38 1000.45 1000.57 1000.67 1000.79 1000.96 1000.90 1000.56 1000.11 999.88 999.65 1000.09 1000.58 1000.99 1001.51 1002.00 1002.59 1003.31 1004.04 1004.99 1005.74 1006.16 1006.49 1007.08 1007.60 1008.03 1008.43 1008.88 1009.28 1009.73 1010.19 1010.51 1010.81 1011.22 1011.55
1000.64 1000.11 999.99 999.62 999.73 999.53 999.03 999.86 1000.52 1000.73 1000.97 1000.87 1000.78 1000.92 1001.00 1001.19 1001.02 1000.54 1000.02 999.66 999.60 1000.00 1000.33 1000.95 1001.54 1002.24 1002.84 1003.64 1004.32 1005.16 1005.74 1006.45 1006.96 1007.16 1007.57 1008.06 1008.39 1008.88 1009.39 1009.83 1010.30 1010.76 1011.11 1011.52
1001.00 999.92 999.38 999.09 999.88 1000.05 999.91 1000.02 1000.73 1001.19 1001.38 1001.27 1000.90 1000.61 1001.36 1001.69 1001.51 1000.85 1000.16 999.89 999.76 1000.02 1000.25 1000.73 1001.07 1001.86 1002.39 1002.95 1003.36 1004.09 1004.98 1005.87 1006.74 1007.31 1007.26 1007.42 1007.68 1008.33 1008.79 1009.03 1009.59 1010.28 1011.09 1011.55
1000.60 999.95 999.75 999.97 1000.36 1000.69 1000.64 1000.48 1000.91 1001.48 1001.76 1001.64 1001.39 1001.91 1002.19 1002.25 1002.11 1001.71 1001.08 1000.49 1000.19 1000.29 1000.52 1000.74 1001.15 1001.67 1002.39 1002.69 1003.02 1003.51 1004.47 1005.21 1006.03 1006.57 1007.12 1007.53 1008.11 1008.42 1008.57 1009.05 1009.55 1009.83 1010.70 1011.45
1000.95 1000.19 1000.03 1000.39 1001.13 1000.89 1001.18 1001.50 1001.69 1002.15 1002.44 1002.40 1002.42 1002.41 1002.49 1002.57 1002.50 1002.19 1001.82 1001.54 1001.28 1000.93 1001.12 1001.39 1001.63 1001.76 1002.21 1002.83 1003.40 1003.96 1004.15 1004.80 1005.47 1005.87 1006.53 1007.14 1007.66 1008.18 1008.68 1008.67 1008.75 1008.58 1010.27 1011.06
1000.78 1000.11 1000.05 1000.49 1000.71 1001.21 1001.57 1001.75 1002.25 1002.58 1002.91 1003.00 1002.83 1002.78 1002.84 1002.87 1002.87 1002.76 1002.49 1002.16 1002.25 1002.19 1002.19 1002.18 1002.21 1002.35 1002.58 1002.81 1003.53 1004.54 1005.08 1004.27 1005.05 1005.54 1006.07 1005.83 1006.03 1006.30 1007.89 1008.41 1008.30 1007.71 1008.98 1010.20
1001.08 1000.87 1000.83 1001.05 1001.45 1001.79 1001.99 1001.92 1002.41 1002.82 1003.07 1003.39 1003.34 1003.12 1002.99 1003.03 1003.10 1003.05 1002.88 1002.64 1002.59 1002.57 1002.73 1003.23 1003.39 1003.22 1003.24 1003.48 1002.79 1004.02 1005.20 1004.90 1005.71 1006.25 1005.12 1005.47 1005.98 1006.25 1006.94 1007.63 1008.12 1008.54 1009.06 1009.63
1001.51 1001.17 1001.49 1001.55 1001.75 1001.91 1002.07 1002.37 1002.62 1002.86 1003.21 1003.47 1003.65 1003.43 1003.46 1003.34 1003.31 1003.25 1003.24 1003.19 1003.26 1003.30 1003.32 1003.37 1003.43 1003.28 1003.07 1002.90 1001.92 1001.46 1001.89 1002.11 1005.75 1006.35 1005.15 1005.27 1006.05 1006.67 1006.82 1006.98 1007.23 1007.84 1008.55 1009.11
1000.98 1001.13 1001.41 1001.65 1001.97 1002.27 1002.21 1002.14 1002.59 1002.88 1002.99 1003.36 1003.69 1003.69 1003.66 1003.64 1003.74 1003.70 1003.54 1003.56 1003.71 1003.92 1003.99 1003.98 1003.78 1003.53 1003.02 1002.51 1001.96 1001.33 1000.01 1003.34 1005.34 1006.37 1005.87 1005.82 1006.62 1007.17 1007.38 1007.28 1007.16 1007.56 1007.63 1008.21
1001.59 1001.61 1001.80 1001.95 1002.26 1002.45 1002.53 1002.68 1002.84 1002.95 1003.24 1003.56 1003.82 1003.89 1004.03 1004.06 1004.30 1004.40 1003.97 1003.83 1003.80 1003.82 1003.97 1003.97 1003.70 1003.58 1003.40 1003.04 1002.57 1002.20 1003.06 1003.59 1005.33 1005.83 1005.69 1006.05 1006.19 1006.65 1007.07 1007.59 1007.68 1007.64 1007.67 1007.80
1002.11 1002.22 1002.17 1002.26 1002.11 1002.45 1002.48 1002.74 1003.12 1003.32 1003.55 1003.80 1004.00 1004.11 1004.16 1004.07 1004.33 1004.67 1004.52 1004.19 1004.00 1003.79 1004.00 1003.65 1003.66 1003.06 1003.89 1003.86 1003.23 1003.24 1003.59 1004.07 1004.74 1005.03 1005.49 1005.90 1005.83 1006.10 1006.43 1007.06 1007.53 1007.65 1007.82 1007.83
1001.74 1002.00 1001.89 1002.00 1002.24 1002.49 1002.68 1002.87 1003.05 1003.37 1003.76 1003.96 1004.21 1004.36 1004.47 1004.61 1004.95 1005.00 1004.68 1004.51 1004.35 1004.35 1004.25 1004.15 1003.80 1003.89 1004.10 1003.77 1002.91 1003.35 1003.69 1004.07 1004.27 1004.69 1005.30 1005.44 1005.43 1005.54 1005.98 1006.34 1006.46 1006.82 1007.85 1008.26
1001.70 1002.06 1002.20 1002.14 1002.25 1002.43 1002.48 1002.78 1002.96 1003.46 1003.98 1004.35 1004.63 1004.89 1005.10 1005.17 1005.19 1005.24 1005.24 1005.07 1004.88 1005.07 1004.94 1004.59 1004.12 1003.86 1003.67 1003.57 1003.44 1003.54 1003.95 1004.38 1004.57 1004.89 1005.18 1005.29 1005.40 1005.87 1006.25 1006.23 1006.31 1006.68 1007.55 1007.96
1001.75 1001.82 1001.79 1001.86 1001.97 1002.16 1002.34 1002.64 1003.05 1003.76 1004.38 1004.83 1005.26 1005.36 1005.46 1005.51 1005.61 1005.62 1005.43 1005.26 1005.44 1005.54 1005.21 1005.07 1004.65 1004.19 1003.87 1003.67 1003.82 1003.83 1003.87 1004.21 1004.72 1004.92 1004.64 1005.21 1005.48 1005.62 1005.75 1006.11 1006.31 1006.75 1007.24 1008.14
1001.05 1000.64 1000.95 1000.96 1001.39 1001.85 1002.46 1002.84 1003.47 1004.14 1004.66 1005.03 1005.24 1005.46 1005.42 1005.66 1005.71 1005.85 1006.03 1005.93 1005.62 1005.50 1005.48 1005.33 1004.79 1004.28 1004.06 1004.00 1004.13 1004.42 1004.60 1004.58 1004.60 1004.71 1004.91 1005.20 1005.35 1005.49 1005.59 1005.72 1005.96 1006.57 1006.96 1007.52
1000.41 1000.25 1000.32 1000.68 1001.04 1001.47 1002.25 1003.00 1003.46 1004.17 1004.67 1004.96 1005.47 1005.68 1005.67 1005.70 1005.92 1006.20 1006.37 1006.19 1005.84 1005.60 1005.64 1005.43 1005.17 1004.64 1004.41 1004.51 1004.43 1004.43 1004.28 1004.57 1004.64 1004.54 1004.92 1004.98 1005.10 1005.16 1005.42 1005.31 1005.89 1006.35 1006.78 1007.07
1000.02 999.92 1000.13 1000.50 1001.19 1001.70 1002.47 1003.01 1003.68 1004.27 1005.12 1005.41 1005.60 1005.75 1005.84 1006.02 1006.17 1006.33 1006.47 1006.40 1006.36 1006.34 1006.09 1005.65 1005.05 1004.88 1005.08 1004.77 1004.90 1004.80 1004.82 1004.83 1004.88 1004.86 1004.80 1004.72 1004.95 1004.83 1004.93 1005.16 1005.49 1005.45 1005.73 1006.37
1000.17 1000.28 1000.23 1000.48 1001.25 1001.93 1002.65 1003.18 1003.85 1004.81 1005.26 1005.35 1005.52 1005.74 1005.95 1006.12 1006.29 1006.32 1006.31 1006.08 1006.51 1006.36 1006.16 1006.18 1006.03 1005.82 1005.69 1005.61 1005.45 1005.26 1005.39 1005.23 1005.30 1005.22 1004.64 1004.58 1004.97 1004.76 1004.68 1005.03 1004.97 1004.90 1005.29 1005.95
1000.55 1000.61 1000.77 1000.91 1001.42 1002.16 1003.00 1003.73 1004.33 1004.87 1005.11 1005.35 1005.58 1005.73 1005.84 1005.90 1006.03 1006.24 1006.44 1006.36 1006.55 1006.87 1006.32 1006.15 1006.04 1006.19 1005.64 1005.31 1005.43 1005.39 1005.55 1005.32 1005.08 1005.08 1005.16 1004.71 1004.46 1004.59 1004.68 1004.53 1004.38 1005.00 1005.19 1005.35
1000.99 1001.12 1001.26 1001.50 1001.85 1002.50 1003.36 1003.88 1004.22 1004.52 1004.90 1005.24 1005.51 1005.68 1005.71 1005.74 1005.78 1005.83 1006.16 1006.91 1006.62 1007.05 1006.50 1006.44 1006.78 1006.64 1006.25 1006.11 1006.11 1006.08 1006.01 1005.63 1005.60 1005.37 1004.87 1004.62 1004.61 1004.90 1004.88 1005.12 1004.92 1004.75 1004.93 1005.29
1001.58 1001.63 1001.78 1002.11 1002.46 1003.00 1003.49 1003.97 1004.19 1004.46 1004.79 1005.17 1005.29 1005.48 1005.51 1005.58 1005.94 1006.14 1006.36 1006.86 1007.01 1006.82 1006.41 1006.45 1006.52 1006.51 1006.31 1005.92 1006.42 1006.67 1006.16 1005.39 1005.03 1004.95 1005.16 1005.25 1005.12 1005.17 1005.05 1004.80 1004.65 1004.84 1004.98 1005.01
1001.93 1002.16 1002.42 1002.42 1002.74 1003.12 1003.48 1004.00 1004.32 1004.57 1004.86 1004.96 1005.20 1005.36 1005.41 1005.42 1005.24 1005.65 1005.81 1005.87 1006.38 1006.28 1005.78 1006.03 1006.26 1006.46 1006.38 1006.58 1006.49 1005.76 1005.15 1005.01 1005.10 1005.17 1005.10 1005.02 1004.99 1005.03 1004.97 1004.86 1004.82 1004.84 1004.85 1004.75
1002.33 1002.61 1002.84 1003.18 1002.79 1003.09 1003.51 1004.06 1004.11 1004.38 1004.54 1004.61 1004.83 1005.07 1005.22 1005.42 1005.61 1005.96 1005.74 1005.96 1005.71 1005.92 1005.71 1005.67 1005.85 1006.01 1005.91 1005.75 1005.61 1005.41 1005.24 1005.12 1005.32 1005.18 1005.31 1005.09 1005.17 1005.12 1005.02 1004.95 1004.85 1004.80 1004.71 1004.71
1002.85 1002.98 1003.32 1003.57 1003.38 1003.54 1003.72 1003.83 1003.91 1004.24 1004.36 1004.36 1004.46 1004.79 1004.92 1005.10 1005.31 1005.49 1005.58 1005.47 1005.35 1005.31 1005.07 1005.28 1005.27 1005.50 1005.18 1005.11 1005.02 1005.04 1005.03 1004.93 1005.11 1004.99 1004.87 1004.89 1004.88 1004.86 1004.79 1004.77 1004.76 1004.69 1004.71 1004.73
Wind_Speed
11 13 8 5 5 12 13 10 10 12 8 11 5 11 13 10 7 7 7 8 9 11 11 12 12 12 11 11 12 11 11 11 10 10 9 9 9 8 8 9 7 8 7 7
12 14 11 12 11 11 7 5 7 4 8 4 6 8 10 10 11 13 11 11 11 11 12 13 13 12 11 11 11 12 11 10 9 8 9 9 9 9 10 8 7 7 7 7
12 6 9 10 16 11 6 7 6 8 2 5 6 6 8 11 12 13 13 9 12 12 13 13 14 14 13 11 10 11 11 10 10 10 9 8 8 9 8 8 8 7 7 7
4 7 11 1 1 7 12 7 6 3 3 7 7 3 6 10 10 13 12 11 8 10 12 14 14 14 12 11 11 10 11 11 11 11 10 9 9 9 8 8 8 8 7 6
5 10 2 4 6 8 10 8 6 4 3 6 5 6 2 12 11 10 11 10 8 10 12 12 14 13 14 13 12 11 11 11 11 12 11 11 11 11 9 9 7 7 7 8
4 7 10 4 8 3 4 6 9 5 1 5 2 5 4 9 13 12 10 5 5 8 8 11 13 14 15 14 15 15 13 11 10 9 10 11 12 11 10 10 9 7 6 6
4 5 2 3 6 4 8 1 9 4 2 4 3 4 4 7 9 12 12 11 6 0 5 7 9 11 11 11 13 10 12 12 11 10 9 8 6 7 9 9 8 8 8 7
4 3 4 7 8 7 3 5 6 4 3 2 2 2 3 5 7 10 11 12 9 7 7 6 6 9 9 7 5 9 11 11 13 15 11 9 11 8 8 9 10 11 8 8
4 2 4 7 1 6 5 5 4 2 1 3 4 4 4 5 6 7 7 6 6 6 8 10 11 10 9 7 9 7 9 10 13 13 11 12 15 16 11 12 9 10 11 9
3 3 3 4 2 2 3 5 3 2 1 1 5 5 5 5 4 5 7 6 3 2 3 3 3 5 9 8 12 11 6 8 4 12 13 11 6 8 9 8 7 7 8 9
3 4 3 6 5 4 4 3 2 3 1 0 4 5 6 7 6 5 4 4 4 6 6 4 2 6 9 10 8 3 4 5 11 14 11 8 6 5 9 10 10 9 7 7
1 4 1 1 1 5 5 5 4 2 3 2 2 4 5 5 6 7 6 5 4 5 4 4 5 7 6 6 2 6 18 6 13 9 5 3 6 5 8 7 11 13 14 12
3 2 3 5 3 3 4 3 4 4 3 3 3 4 4 4 5 6 7 5 4 4 3 3 4 6 7 4 1 4 5 9 6 5 3 5 6 5 6 2 8 2 10 15
4 5 3 6 3 6 4 4 6 3 3 3 4 5 4 5 5 5 6 5 5 6 5 6 3 7 6 6 3 5 6 6 5 4 4 5 5 6 6 8 8 5 4 8
12 8 1 5 3 3 4 6 7 5 4 5 5 5 5 5 6 6 7 5 6 8 8 6 5 4 2 2 5 3 1 2 3 3 4 5 5 5 6 6 6 4 3 2
6 8 4 4 5 4 5 7 9 7 5 3 3 4 4 4 5 5 6 7 6 5 6 7 7 8 7 4 3 2 1 3 2 2 3 3 3 3 4 4 3 4 5 5
7 7 10 9 9 7 7 7 7 8 6 5 4 3 4 6 6 6 7 7 6 5 6 6 7 6 5 4 3 3 2 2 1 1 2 4 5 5 4 4 3 4 4 4
15 9 13 11 13 12 11 11 10 9 7 6 5 4 5 6 5 6 5 3 4 5 7 7 8 6 6 4 4 2 1 2 2 1 0 1 2 2 4 4 4 5 5 6
14 13 12 11 13 13 12 11 11 9 7 7 5 5 5 5 6 5 4 4 5 6 8 8 9 8 7 7 3 2 3 3 2 1 2 2 3 3 3 3 4 5 5 6
12 12 12 14 13 13 12 10 10 9 6 6 6 5 6 5 4 4 5 5 5 3 5 8 8 8 7 8 8 4 3 3 3 3 3 3 3 3 3 5 6 6 7 6
8 10 15 15 13 13 12 12 11 9 7 6 6 5 5 6 5 5 5 4 4 5 5 6 6 4 4 3 4 4 4 5 5 3 3 3 3 2 2 4 4 5 5 6
5 10 12 15 14 13 11 10 10 9 8 7 6 6 6 6 6 6 5 5 3 4 3 3 5 8 6 6 5 4 4 5 5 5 5 5 4 3 3 2 0 2 3 3
7 11 13 14 14 13 12 10 9 9 8 7 7 7 7 6 5 6 6 3 3 3 3 3 3 4 5 4 4 3 3 4 4 4 5 5 5 5 5 4 3 2 2 2
8 10 11 10 12 12 10 8 8 7 7 7 8 7 7 6 5 4 4 3 2 1 2 2 2 1 3 3 1 0 1 3 4 4 4 2 3 3 3 3 2 1 1 1
8 6 7 10 8 6 9 9 8 8 8 7 7 5 4 2 2 4 2 2 1 3 2 3 3 4 3 3 2 3 4 4 4 4 4 4 4 4 3 3 3 3 3 3
7 5 4 3 5 7 7 7 7 6 6 6 5 4 4 3 2 2 2 2 2 2 3 2 3 4 4 4 3 3 3 4 4 3 4 4 4 4 4 3 3 3 4 4
6 6 4 2 3 3 5 7 7 6 5 5 5 5 4 4 4 3 2 2 2 2 2 1 2 3 2 2 2 2 2 3 3 5 5 5 5 5 6 5 5 4 4 5
Wind_Direction
226 236 211 237 194 184 200 228 225 260 223 266 280 276 277 297 271 245 226 215 193 189 182 181 181 180 176 174 168 168 173 176 182 188 184 184 187 197 188 183 190 188 182 185
232 226 222 239 221 201 201 180 249 226 253 223 289 286 291 302 291 259 233 216 207 193 188 188 183 186 180 173 174 170 173 179 173 184 188 191 187 187 181 180 177 173 171 173
230 206 202 241 232 210 194 191 201 194 216 307 295 349 343 325 308 284 269 244 213 199 196 191 190 186 183 178 174 176 174 179 179 184 192 194 183 176 180 177 168 168 164 163
218 161 218 240 154 233 204 171 202 242 262 290 293 306 42 7 336 312 298 261 219 203 202 197 192 190 181 174 173 187 187 187 189 186 187 178 175 177 173 168 172 171 169 174
193 209 341 170 171 172 186 184 167 207 277 291 305 183 106 13 353 326 305 275 235 201 211 197 193 187 178 178 174 186 196 198 200 191 182 178 180 176 173 169 173 179 180 177
173 204 215 149 148 122 140 195 174 190 234 314 232 214 50 6 8 7 6 332 257 213 210 202 194 186 183 181 178 194 193 193 196 205 201 189 183 178 179 177 175 178 182 187
187 216 216 158 141 165 192 124 151 145 86 10 61 22 340 351 1 4 15 17 29 356 214 212 186 183 199 191 205 186 173 176 184 186 188 188 184 178 173 171 164 171 185 190
168 162 210 151 135 203 84 99 113 111 71 36 68 75 7 7 10 8 11 15 25 91 95 89 149 167 163 168 155 157 155 165 171 166 158 158 172 189 184 171 174 158 179 193
249 74 108 162 164 132 135 113 102 81 129 305 331 2 6 2 4 9 9 16 34 64 93 106 115 128 116 133 138 156 171 161 177 176 171 181 178 171 198 205 193 175 173 187
262 130 214 194 146 138 156 127 140 165 184 265 315 318 312 320 357 2 359 13 39 35 171 154 149 163 147 144 138 154 152 110 184 203 192 186 205 182 180 187 191 184 194 197
269 232 282 235 226 141 130 130 137 132 144 277 297 306 306 306 305 293 308 348 24 56 35 51 227 223 215 201 194 60 87 90 234 236 204 170 207 195 197 197 192 184 196 197
239 154 151 146 121 154 129 84 49 38 92 73 346 0 354 348 343 327 307 277 329 39 45 16 340 335 313 277 289 247 83 215 217 237 260 211 189 181 50 0 184 194 169 183
346 142 94 116 129 134 142 122 117 98 102 117 71 34 28 36 37 48 64 75 56 39 54 68 43 19 342 303 106 91 157 160 200 228 259 244 225 213 226 91 46 355 200 187
215 160 180 199 151 179 167 142 146 105 129 107 99 78 55 52 68 42 35 50 39 35 16 14 13 59 323 292 188 174 173 161 188 194 223 235 223 197 215 215 214 210 240 207
210 212 165 115 129 178 167 171 175 165 149 113 76 63 52 59 55 44 35 54 55 45 27 3 5 29 262 252 51 56 206 167 152 162 220 237 215 201 206 211 218 213 135 84
180 192 189 198 180 184 178 178 179 166 161 126 107 92 86 76 62 54 51 49 51 33 17 7 5 347 357 7 73 94 106 201 171 191 171 177 158 169 197 207 202 183 195 183
167 202 206 209 190 174 169 162 162 157 152 142 120 97 106 95 73 49 39 41 48 37 31 15 352 354 317 360 343 353 357 19 156 225 168 190 198 209 211 196 193 178 146 90
240 249 199 204 175 157 156 156 150 149 156 148 124 120 109 102 84 63 43 50 90 74 39 4 356 359 14 352 286 291 327 336 350 340 48 253 207 226 190 184 163 177 160 156
235 225 194 178 170 155 156 156 145 139 139 127 152 131 91 81 73 68 63 69 62 52 15 3 357 32 20 30 34 56 46 21 344 299 247 215 224 207 211 185 184 196 187 164
220 207 175 163 162 156 151 141 135 127 137 152 139 132 112 100 97 105 93 59 34 11 342 11 26 34 24 39 33 32 29 53 5 343 320 312 253 235 232 218 215 193 194 192
215 187 165 155 154 146 146 141 139 150 154 153 155 141 120 115 121 142 145 111 51 24 23 30 39 61 77 71 63 61 56 58 52 20 10 2 323 291 269 260 225 217 201 201
194 181 166 150 145 141 145 148 148 150 150 140 137 137 139 123 116 102 63 61 66 360 59 58 47 32 44 23 54 54 41 39 35 44 39 41 39 18 10 33 143 271 249 221
184 173 159 149 148 147 150 156 156 152 145 141 140 137 130 120 118 118 106 107 111 104 106 90 65 58 55 68 53 53 66 63 49 39 43 41 49 42 41 36 39 85 168 222
178 165 150 138 133 139 143 149 146 146 140 138 129 131 137 135 131 122 117 124 133 179 81 100 90 52 308 70 80 132 77 60 49 42 40 2 16 6 15 21 48 94 116 190
170 148 146 134 127 153 143 144 141 147 152 142 144 156 155 125 57 107 105 95 194 283 328 161 224 216 230 229 273 349 11 10 8 357 358 0 360 357 335 315 302 306 309 299
135 146 131 194 148 150 145 155 153 154 159 149 153 165 172 177 184 183 163 203 256 265 258 270 257 233 250 255 264 275 290 295 276 272 292 300 294 290 294 297 299 292 289 289
92 78 82 92 82 130 164 170 161 161 177 163 161 178 194 191 185 215 223 267 284 305 301 268 228 206 243 247 270 295 291 304 294 295 283 278 282 286 285 283 278 270 266 267